Flight Track Log - Related Links

Times and Time Zones

All times are in EST time to prevent confusion due to time zone crossing. See the FIN666 flight status page for this flight to view local times or setup timezone preferences in your user account.

Time Position Orientation Groundspeed Altitude Reporting Facility
EST Latitude Longitude Course Direction KTS MPH feet Rate Location/Type
Sun 07:22:00 AM 55.8556 13.1474 49° Northeast  Level Estimated
Sun 07:23:00 AM 55.9343 13.3125 50° Northeast  Level Estimated
Sun 07:24:00 AM 56.0129 13.4784 50° Northeast  Level Estimated
Sun 07:25:00 AM 56.0912 13.6449 50° Northeast  Level Estimated
Sun 07:26:00 AM 56.1718 13.8173 50° Northeast  Level Estimated
Sun 07:27:00 AM 56.2521 13.9904 50° Northeast  Level Estimated
Sun 07:28:00 AM 56.3322 14.1643 50° Northeast  Level Estimated
Sun 07:29:00 AM 56.4120 14.3388 50° Northeast  Level Estimated
Sun 07:30:00 AM 56.4916 14.5142 51° Northeast  Level Estimated
Sun 07:31:00 AM 56.5709 14.6902 51° Northeast  Level Estimated
Sun 07:32:00 AM 56.6499 14.8670 51° Northeast  Level Estimated
Sun 07:33:00 AM 56.7288 15.0445 51° Northeast  Level Estimated
Sun 07:34:00 AM 56.8073 15.2228 51° Northeast  Level Estimated
Sun 07:35:00 AM 56.8856 15.4018 51° Northeast  Level Estimated
Sun 07:36:00 AM 56.9637 15.5816 51° Northeast  Level Estimated
Sun 07:37:00 AM 57.0415 15.7621 52° Northeast  Level Estimated
Sun 07:38:00 AM 57.1179 15.9406 52° Northeast  Level Estimated
Sun 07:39:00 AM 57.1939 16.1199 52° Northeast  Level Estimated
Sun 07:40:00 AM 57.2698 16.2998 52° Northeast  Level Estimated
Sun 07:41:00 AM 57.3454 16.4806 52° Northeast  Level Estimated
Sun 07:42:00 AM 57.4207 16.6620 52° Northeast  Level Estimated
Sun 07:43:00 AM 57.4957 16.8442 52° Northeast  Level Estimated
Sun 07:44:00 AM 57.5705 17.0271 53° Northeast  Level Estimated
Sun 07:45:00 AM 57.6451 17.2108 53° Northeast  Level Estimated
Sun 07:46:00 AM 57.7193 17.3953 53° Northeast  Level Estimated
Sun 07:47:00 AM 57.7933 17.5805 53° Northeast  Level Estimated
Sun 07:48:00 AM 57.8670 17.7665 53° Northeast  Level Estimated
Sun 07:49:00 AM 57.9405 17.9532 53° Northeast  Level Estimated
Sun 07:50:00 AM 58.0136 18.1407 54° Northeast  Level Estimated
Sun 07:51:00 AM 58.0865 18.3290 54° Northeast  Level Estimated
Sun 07:52:00 AM 58.1592 18.5180 54° Northeast  Level Estimated
Sun 07:53:00 AM 58.2315 18.7078 54° Northeast  Level Estimated
Sun 07:54:00 AM 58.3035 18.8984 54° Northeast  Level Estimated
Sun 07:55:00 AM 58.3753 19.0898 54° Northeast  Level Estimated
Sun 07:56:00 AM 58.4468 19.2819 55° Northeast  Level Estimated
Sun 07:57:00 AM 58.5180 19.4748 55° Northeast  Level Estimated
Sun 07:58:00 AM 58.5889 19.6686 55° Northeast  Level Estimated
Sun 07:59:00 AM 58.6595 19.8630 55° Northeast  Level Estimated
Sun 08:00:00 AM 58.7298 20.0583 55° Northeast  Level Estimated
Sun 08:01:00 AM 58.7998 20.2544 55° Northeast  Level Estimated
Sun 08:02:00 AM 58.8695 20.4512 56° Northeast  Level Estimated
Sun 08:03:00 AM 58.9390 20.6489 56° Northeast  Level Estimated
Sun 08:04:00 AM 59.0081 20.8473 56° Northeast  Level Estimated
Sun 08:05:00 AM 59.0769 21.0465 56° Northeast  Level Estimated
Sun 08:06:00 AM 59.1454 21.2466 56° Northeast  Level Estimated
Sun 08:07:00 AM 59.2136 21.4474 56° Northeast  Level Estimated
Sun 08:08:00 AM 59.2815 21.6491 57° Northeast  Level Estimated
Sun 08:09:00 AM 59.3491 21.8515 57° Northeast  Level Estimated
Sun 08:10:00 AM 59.4163 22.0548 57° Northeast  Level Estimated
Sun 08:11:00 AM 59.4833 22.2588 57° Northeast  Level Estimated
Sun 08:12:00 AM 59.5499 22.4637 57° Northeast  Level Estimated
Sun 08:13:00 AM 59.6162 22.6693 57° Northeast  Level Estimated
Sun 08:14:00 AM 59.6822 22.8758 58° Northeast  Level Estimated
Sun 08:15:00 AM 59.7478 23.0831 58° Northeast  Level Estimated
Sun 08:16:00 AM 59.8131 23.2912 58° Northeast  Level Estimated
Sun 08:17:00 AM 59.8781 23.5002 58° Northeast  Level Estimated
Sun 08:18:00 AM 59.9428 23.7099 58° Northeast  Level Estimated
Sun 08:19:00 AM 60.0071 23.9205 59° Northeast  Level Estimated
Sun 08:20:00 AM 60.0711 24.1318 59° Northeast  Level Estimated
Sun 08:21:00 AM 60.1348 24.3440 59° Northeast  Level Estimated
Sun 08:22:00 AM 60.1981 24.5571 59° Northeast  Level Estimated
Sun 08:23:00 AM 60.2611 24.7709 59° Northeast  Level Estimated
Sun 08:24:00 AM 60.3172 24.9633 59° Northeast  Level Estimated
Sun 08:25:00 AM 60.3172 24.9633 37° Northeast  Level Estimated
Sun 08:26:00 AM 60.3172 24.9633 37° Northeast  Level Estimated
Sun 08:27:00 AM 60.3172 24.9633 37° Northeast  Level Estimated
Sun 08:28:00 AM 60.3172 24.9633 37° Northeast  Level Estimated
Sun 08:29:00 AM 60.3172 24.9633 37° Northeast  Level Estimated
Sun 08:30:00 AM 60.3172 24.9633 37° Northeast  Level Estimated
Sun 08:31:00 AM 60.3172 24.9633 37° Northeast  Level Estimated
Sun 08:32:00 AM 60.3172 24.9633 37° Northeast  Level Estimated
Sun 08:33:00 AM 60.3172 24.9633 37° Northeast  Level Estimated
Sun 08:34:00 AM 60.3172 24.9633 37° Northeast  Level Estimated
Sun 08:35:00 AM 60.3172 24.9633 37° Northeast  Level Estimated
Sun 08:36:00 AM 60.3172 24.9633 37° Northeast  Level Estimated
Sun 08:37:00 AM 60.3172 24.9633 37° Northeast  Level Estimated
Sun 08:38:00 AM 60.3172 24.9633 37° Northeast  Level Estimated
Sun 08:39:00 AM 60.3172 24.9633 37° Northeast  Level Estimated

Login

Don't have an account? Register now (free) for customized features, flight alerts, and more!